[[{"header":{"parameterUnit":"m.s-1","parameterCategory":1,"la1":30.2992,"la2":30.254,"lo1":-89.0895,"lo2":-89.0443,"dy":0.0025,"dx":0.0025,"nx":19,"ny":19,"refTime":"2026-05-23T09:00:00:Z","depth":0,"parameterNumber":2,"parameterNumberName":"U-component_of_WINDS"},"data":[0,0,0,-2.0554,-2.0559,-2.0805,-2.0806,-2.111,-2.1113,0,0,0,0,0,0,0,0,0,0,0,-2.0472,-2.0473,-2.0554,-2.056,-2.0805,-2.0806,-2.111,-2.1113,0,0,0,0,0,0,0,0,0,0,0,-2.0471,-2.0473,-2.0475,-2.0561,-2.0805,-2.0806,-2.1109,-2.0928,0,0,0,0,0,0,0,0,0,0,-2.0692,-2.0605,-2.0472,-2.0475,-2.0562,-2.0804,-2.0806,-2.092,-2.094,-2.0993,0,-2.1035,0,-2.1078,-2.1132,-2.1133,0,0,0,-2.0568,-2.0588,-2.0663,-2.0475,-2.0564,-2.0804,-2.0697,-2.0931,-2.0953,-2.102,-2.1039,-2.1051,-2.1083,-2.1134,-2.1135,-2.1408,-2.1408,0,0,-2.0555,-2.0511,-2.0647,-2.0677,-2.0634,-2.0689,-2.0704,-2.0945,-2.0965,-2.1041,-2.1059,-2.1088,-2.1136,-2.1138,-2.1407,-2.1408,0,0,0,-2.051,-2.0501,-2.0571,-2.0664,-2.0709,-2.0696,-2.0713,-2.0955,-2.098,-2.1062,-2.1092,-2.1137,-2.1141,-2.1406,-2.1407,-2.1405,0,0,0,-2.0502,-2.0475,-2.0564,-2.054,-2.0704,-2.0834,-2.0717,-2.0964,-2.0992,-2.109,-2.1138,-2.1144,-2.1405,-2.1407,-2.1403,-2.141,0,0,0,-2.0459,-2.0471,-2.0502,-2.0537,-2.0641,-2.0831,-2.0871,-2.0971,-2.101,-2.1133,-2.1145,-2.1404,-2.1406,-2.1401,-2.1408,-2.1468,0,0,0,-2.0402,-2.0499,-2.0501,-2.0623,-2.0638,-2.0827,-2.087,-2.1014,-2.1119,-2.1139,-2.1405,-2.1407,-2.14,-2.1406,-2.1465,-2.1508,-2.1522,0,0,-2.05,-2.0509,-2.0584,-2.0593,-2.0769,-2.0793,-2.0971,-2.1111,-2.1165,-2.1325,-2.1332,-2.1403,-2.1408,-2.1467,-2.162,-2.163,0,0,0,-2.0601,-2.0653,-2.071,-2.0805,-2.0913,-2.1006,-2.1123,-2.1175,-2.1312,-2.1237,-2.1444,-2.1448,-2.1485,-2.1507,-2.1516,-2.155,-2.1416,-2.1416,-2.1416,-2.0676,-2.0737,-2.0865,-2.0956,-2.105,-2.1169,-2.1251,-2.1343,-2.138,-2.1428,-2.1475,-2.156,-2.1584,-2.1591,-2.1626,-2.1505,-2.1505,-2.1505,-2.1505,-2.0825,-2.0908,-2.0954,-2.1093,-2.1159,-2.128,-2.14,-2.1422,-2.1546,-2.153,-2.1565,-2.1539,-2.1601,-2.1634,-2.1505,-2.1505,-2.1505,-2.1505,-2.1505,-2.0878,-2.0929,-2.0989,-2.1134,-2.1241,-2.1333,-2.1448,-2.1506,-2.1562,-2.1597,-2.1652,-2.1652,-2.1658,-2.162,-2.162,-2.162,-2.1621,-2.1621,-2.1621,-2.0909,-2.0977,-2.1064,-2.1187,-2.1256,-2.1356,-2.1479,-2.155,-2.1645,-2.1678,-2.1679,-2.171,-2.1596,-2.1564,-2.1626,-2.1625,-2.1624,-2.1624,-2.1624,-2.1031,-2.1013,-2.1147,-2.1216,-2.1366,-2.1468,-2.1541,-2.1682,-2.175,-2.1806,-2.1832,-2.1738,-2.1752,-2.1745,-2.1719,-2.1818,-2.1818,-2.1818,-2.1818,-2.1074,-2.1087,-2.1237,-2.1345,-2.1457,-2.1537,-2.1691,-2.1789,-2.1888,-2.1935,-2.1931,-2.1902,-2.1893,-2.1913,-2.1903,-2.1879,-2.2016,-2.2017,-2.2017,-2.1152,-2.1179,-2.1295,-2.1388,-2.151,-2.1614,-2.1761,-2.1885,-2.1996,-2.2026,-2.1973,-2.1965,-2.192,-2.1902,-2.1927,-2.191,-2.1868,0,0]},{"header":{"parameterUnit":"m.s-1","parameterCategory":1,"la1":30.2992,"la2":30.254,"lo1":-89.0895,"lo2":-89.0443,"dy":0.0025,"dx":0.0025,"nx":19,"ny":19,"refTime":"2026-05-23T09:00:00:Z","depth":0,"parameterNumber":3,"parameterNumberName":"V-component_of_WINDS"},"data":[0,0,0,1.1437,1.1437,1.1426,1.1426,1.1415,1.1415,0,0,0,0,0,0,0,0,0,0,0,1.1443,1.1443,1.1437,1.1437,1.1426,1.1426,1.1415,1.1415,0,0,0,0,0,0,0,0,0,0,0,1.1443,1.1443,1.1443,1.1437,1.1426,1.1426,1.1415,1.1422,0,0,0,0,0,0,0,0,0,0,1.1432,1.144,1.1443,1.1443,1.1437,1.1426,1.1426,1.1422,1.1422,1.1422,0,1.1422,0,1.1419,1.1415,1.1414,0,0,0,1.1435,1.144,1.1435,1.1443,1.1437,1.1426,1.143,1.1422,1.1421,1.1421,1.1422,1.1422,1.1418,1.1414,1.1414,1.1421,1.1421,0,0,1.1436,1.1442,1.1436,1.1435,1.1437,1.1431,1.143,1.1421,1.1423,1.1422,1.1421,1.1418,1.1414,1.1414,1.142,1.1421,0,0,0,1.1439,1.1442,1.1437,1.1436,1.1433,1.143,1.143,1.1424,1.1422,1.1421,1.1418,1.1414,1.1414,1.142,1.1421,1.1432,0,0,0,1.1439,1.1444,1.1438,1.1441,1.1433,1.1428,1.1432,1.1422,1.1421,1.1418,1.1414,1.1414,1.142,1.142,1.1431,1.1436,0,0,0,1.1443,1.1444,1.1444,1.1442,1.1437,1.1428,1.1426,1.1422,1.1419,1.1414,1.1414,1.142,1.142,1.143,1.1435,1.1439,0,0,0,1.1448,1.1454,1.1444,1.1449,1.1437,1.1435,1.1426,1.1424,1.1421,1.1414,1.142,1.1421,1.143,1.1434,1.1438,1.1443,1.1445,0,0,1.1458,1.1455,1.1457,1.1448,1.145,1.1437,1.144,1.1431,1.1426,1.1423,1.1423,1.1431,1.1435,1.1439,1.1459,1.1461,0,0,0,1.1463,1.1464,1.1463,1.1461,1.1455,1.1451,1.1441,1.1439,1.1436,1.1425,1.1434,1.1436,1.1438,1.144,1.1441,1.1443,1.1422,1.1422,1.1422,1.1485,1.1477,1.1481,1.1472,1.147,1.1461,1.1459,1.1453,1.1446,1.1448,1.1447,1.146,1.1463,1.1464,1.1465,1.1449,1.1449,1.1449,1.1449,1.1498,1.1499,1.149,1.149,1.1482,1.1482,1.1474,1.1469,1.1468,1.146,1.1462,1.1454,1.1467,1.1467,1.145,1.145,1.145,1.145,1.145,1.1511,1.1511,1.1507,1.1504,1.1502,1.1493,1.1493,1.1486,1.1479,1.148,1.1478,1.1478,1.1476,1.148,1.148,1.148,1.148,1.148,1.148,1.1526,1.1522,1.1522,1.1517,1.1515,1.1511,1.1503,1.1501,1.1496,1.1491,1.1491,1.1484,1.1469,1.1466,1.1481,1.1481,1.1481,1.1481,1.1481,1.1541,1.1537,1.1537,1.1535,1.1529,1.1528,1.1519,1.1515,1.1512,1.1512,1.1505,1.1496,1.1492,1.149,1.1487,1.1507,1.1507,1.1507,1.1507,1.1552,1.155,1.1549,1.1546,1.1543,1.1535,1.1536,1.153,1.1522,1.152,1.1517,1.1512,1.1511,1.1507,1.1506,1.1502,1.1526,1.1526,1.1526,1.1561,1.1558,1.156,1.1553,1.1548,1.1543,1.1544,1.1541,1.1532,1.1526,1.1518,1.1518,1.151,1.1508,1.1501,1.1499,1.1493,0,0]}]]